Total_Precipitation_Accumulation
0.00 0.01 0.02 0.03 0.04 0.03 0.03 0.04 0.11 0.08 0.09 0.08 0.03 0.02 0.02 0.03 0.04 0.04 0.03 0.06 0.05 0.06 0.08 0.11 0.14 0.18 0.22 0.22 0.23 0.28 0.38 0.55 0.70 0.80 0.65 0.44 0.32 0.27 0.23 0.27 0.35 0.44 0.53 0.60
0.00 0.01 0.02 0.03 0.05 0.03 0.02 0.02 0.02 0.03 0.05 0.03 0.02 0.03 0.03 0.03 0.04 0.03 0.03 0.04 0.05 0.06 0.10 0.12 0.13 0.14 0.14 0.16 0.18 0.23 0.30 0.36 0.47 0.51 0.42 0.28 0.15 0.10 0.13 0.19 0.26 0.31 0.36 0.41
0.00 0.01 0.01 0.05 0.04 0.02 0.01 0.02 0.04 0.05 0.06 0.04 0.04 0.05 0.05 0.05 0.04 0.03 0.02 0.02 0.01 0.02 0.03 0.04 0.06 0.08 0.08 0.10 0.16 0.26 0.33 0.33 0.38 0.41 0.35 0.22 0.10 0.07 0.10 0.14 0.17 0.20 0.21 0.23
0.00 0.01 0.05 0.05 0.02 0.02 0.02 0.03 0.05 0.06 0.06 0.06 0.07 0.06 0.06 0.06 0.04 0.03 0.02 0.01 0.01 0.01 0.02 0.02 0.03 0.03 0.04 0.07 0.15 0.24 0.28 0.28 0.37 0.42 0.38 0.28 0.20 0.16 0.15 0.16 0.17 0.18 0.18 0.17
0.00 0.01 0.04 0.03 0.03 0.05 0.05 0.06 0.06 0.07 0.08 0.08 0.07 0.05 0.04 0.03 0.02 0.01 0.01 0.01 0.02 0.02 0.03 0.03 0.03 0.04 0.04 0.07 0.14 0.20 0.26 0.30 0.34 0.41 0.41 0.34 0.31 0.30 0.28 0.25 0.23 0.21 0.20 0.19
0.01 0.02 0.06 0.05 0.05 0.06 0.07 0.16 0.13 0.09 0.07 0.04 0.03 0.05 0.02 0.01 0.01 0.01 0.01 0.01 0.02 0.02 0.03 0.03 0.04 0.07 0.10 0.12 0.16 0.23 0.27 0.31 0.36 0.43 0.47 0.42 0.40 0.39 0.36 0.36 0.31 0.28 0.25 0.25
0.03 0.07 0.08 0.03 0.04 0.04 0.12 0.19 0.07 0.03 0.02 0.02 0.05 0.08 0.03 0.01 0.01 0.01 0.01 0.02 0.03 0.04 0.04 0.05 0.08 0.13 0.17 0.17 0.19 0.22 0.26 0.29 0.37 0.50 0.54 0.53 0.54 0.54 0.48 0.43 0.41 0.41 0.38 0.35
0.05 0.10 0.13 0.04 0.03 0.05 0.07 0.04 0.03 0.03 0.03 0.04 0.03 0.02 0.02 0.01 0.01 0.01 0.02 0.03 0.04 0.05 0.08 0.10 0.14 0.20 0.24 0.25 0.24 0.25 0.28 0.33 0.44 0.51 0.46 0.44 0.57 0.63 0.60 0.56 0.53 0.52 0.50 0.46
0.07 0.09 0.04 0.02 0.02 0.03 0.03 0.05 0.04 0.04 0.02 0.03 0.03 0.03 0.03 0.03 0.02 0.03 0.03 0.04 0.06 0.09 0.13 0.17 0.23 0.32 0.39 0.39 0.38 0.35 0.36 0.40 0.46 0.48 0.53 0.59 0.61 0.62 0.64 0.64 0.61 0.56 0.55 0.55
0.07 0.04 0.02 0.02 0.02 0.02 0.02 0.03 0.02 0.02 0.02 0.03 0.05 0.05 0.05 0.05 0.05 0.04 0.05 0.06 0.08 0.11 0.17 0.25 0.35 0.45 0.52 0.52 0.49 0.46 0.42 0.41 0.43 0.48 0.52 0.62 0.72 0.72 0.68 0.67 0.67 0.65 0.61 0.57
0.06 0.04 0.03 0.03 0.03 0.02 0.01 0.01 0.01 0.02 0.02 0.04 0.06 0.07 0.06 0.06 0.06 0.06 0.05 0.05 0.07 0.13 0.23 0.32 0.45 0.56 0.57 0.56 0.58 0.57 0.52 0.47 0.45 0.48 0.53 0.63 0.71 0.77 0.76 0.72 0.62 0.61 0.60 0.57
0.07 0.07 0.08 0.07 0.04 0.02 0.02 0.02 0.03 0.03 0.03 0.03 0.04 0.06 0.06 0.06 0.07 0.07 0.07 0.07 0.12 0.19 0.26 0.31 0.43 0.58 0.62 0.64 0.67 0.69 0.67 0.62 0.59 0.57 0.60 0.63 0.70 0.69 0.61 0.58 0.49 0.45 0.44 0.43
0.06 0.05 0.06 0.06 0.05 0.04 0.05 0.04 0.03 0.03 0.03 0.04 0.04 0.05 0.06 0.06 0.06 0.06 0.07 0.10 0.16 0.20 0.25 0.29 0.38 0.48 0.58 0.69 0.78 0.82 0.79 0.77 0.74 0.66 0.66 0.69 0.73 0.75 0.71 0.60 0.53 0.45 0.36 0.31
0.03 0.04 0.05 0.05 0.04 0.03 0.03 0.03 0.02 0.02 0.03 0.03 0.03 0.04 0.04 0.05 0.06 0.08 0.11 0.13 0.15 0.18 0.24 0.32 0.41 0.48 0.55 0.70 0.81 0.83 0.82 0.80 0.76 0.72 0.67 0.69 0.73 0.72 0.75 0.76 0.68 0.57 0.43 0.32
0.02 0.04 0.05 0.04 0.02 0.02 0.03 0.03 0.02 0.03 0.03 0.04 0.04 0.04 0.05 0.07 0.09 0.11 0.13 0.16 0.20 0.22 0.27 0.37 0.47 0.53 0.65 0.78 0.83 0.82 0.79 0.78 0.74 0.72 0.69 0.66 0.71 0.71 0.69 0.74 0.72 0.67 0.54 0.40
0.01 0.01 0.02 0.02 0.02 0.03 0.04 0.04 0.04 0.04 0.05 0.05 0.05 0.06 0.06 0.08 0.09 0.12 0.15 0.20 0.30 0.33 0.39 0.50 0.56 0.60 0.73 0.84 0.89 0.86 0.80 0.73 0.69 0.67 0.66 0.65 0.67 0.70 0.66 0.69 0.68 0.66 0.54 0.40
0.03 0.02 0.01 0.02 0.03 0.05 0.06 0.07 0.06 0.06 0.06 0.06 0.06 0.07 0.08 0.10 0.15 0.19 0.22 0.25 0.32 0.38 0.47 0.60 0.63 0.63 0.76 0.88 0.95 0.93 0.84 0.72 0.61 0.58 0.57 0.62 0.66 0.67 0.65 0.63 0.61 0.59 0.47 0.32
0.03 0.04 0.04 0.05 0.06 0.08 0.09 0.10 0.10 0.10 0.11 0.11 0.12 0.13 0.16 0.23 0.33 0.39 0.40 0.41 0.44 0.42 0.44 0.56 0.61 0.67 0.75 0.84 0.90 0.93 0.90 0.80 0.65 0.54 0.52 0.59 0.64 0.64 0.62 0.58 0.55 0.53 0.42 0.27
0.03 0.04 0.06 0.11 0.16 0.17 0.17 0.17 0.18 0.18 0.19 0.19 0.20 0.23 0.28 0.36 0.47 0.56 0.57 0.61 0.65 0.63 0.56 0.54 0.58 0.62 0.69 0.74 0.79 0.87 0.83 0.76 0.64 0.47 0.46 0.52 0.56 0.60 0.59 0.52 0.50 0.46 0.35 0.23
0.03 0.03 0.05 0.15 0.27 0.32 0.32 0.31 0.31 0.30 0.28 0.27 0.29 0.34 0.40 0.45 0.56 0.67 0.69 0.67 0.68 0.73 0.68 0.59 0.56 0.58 0.63 0.67 0.70 0.74 0.70 0.68 0.63 0.45 0.40 0.49 0.52 0.57 0.55 0.45 0.41 0.35 0.24 0.16
0.01 0.02 0.03 0.06 0.13 0.21 0.26 0.27 0.28 0.31 0.33 0.37 0.47 0.57 0.65 0.63 0.66 0.78 0.87 0.77 0.63 0.67 0.64 0.57 0.50 0.51 0.54 0.65 0.68 0.69 0.64 0.61 0.62 0.50 0.40 0.44 0.50 0.53 0.49 0.40 0.33 0.24 0.16 0.11
0.02 0.03 0.04 0.06 0.07 0.09 0.10 0.13 0.19 0.29 0.37 0.42 0.49 0.62 0.76 0.83 0.87 0.87 0.79 0.77 0.70 0.68 0.60 0.53 0.47 0.44 0.45 0.52 0.64 0.66 0.63 0.61 0.61 0.56 0.45 0.43 0.47 0.47 0.42 0.33 0.23 0.15 0.10 0.08
0.01 0.02 0.02 0.03 0.04 0.06 0.08 0.10 0.16 0.26 0.36 0.43 0.53 0.71 0.87 0.92 1.01 1.14 0.95 0.69 0.63 0.63 0.58 0.49 0.44 0.41 0.38 0.38 0.51 0.57 0.56 0.58 0.59 0.56 0.48 0.41 0.38 0.37 0.33 0.24 0.16 0.09 0.07 0.06
0.02 0.02 0.02 0.02 0.04 0.06 0.09 0.13 0.17 0.25 0.34 0.40 0.48 0.66 0.87 1.01 0.98 0.88 0.81 0.68 0.58 0.52 0.51 0.45 0.36 0.34 0.32 0.30 0.37 0.44 0.47 0.51 0.48 0.44 0.39 0.31 0.29 0.28 0.21 0.15 0.10 0.06 0.05 0.04
0.02 0.03 0.03 0.05 0.09 0.15 0.23 0.29 0.33 0.37 0.45 0.48 0.48 0.55 0.66 0.87 1.01 0.82 0.60 0.53 0.50 0.44 0.43 0.41 0.34 0.31 0.28 0.25 0.26 0.31 0.36 0.39 0.37 0.35 0.30 0.26 0.24 0.19 0.14 0.10 0.07 0.04 0.04 0.03
0.04 0.04 0.05 0.08 0.14 0.25 0.39 0.50 0.59 0.63 0.72 0.77 0.68 0.61 0.61 0.65 0.71 0.67 0.53 0.45 0.43 0.41 0.36 0.35 0.33 0.29 0.26 0.23 0.20 0.24 0.31 0.35 0.35 0.32 0.26 0.23 0.21 0.17 0.13 0.10 0.05 0.04 0.03 0.02
0.07 0.06 0.08 0.11 0.18 0.30 0.46 0.61 0.74 0.82 0.89 0.96 0.89 0.73 0.64 0.59 0.60 0.59 0.52 0.46 0.43 0.42 0.39 0.35 0.33 0.30 0.28 0.25 0.22 0.23 0.28 0.31 0.32 0.30 0.28 0.27 0.24 0.19 0.15 0.08 0.05 0.03 0.03 0.02